Data supplied by UK-AIR on 13/6/2011
All Data GMT hour ending 
Status: R =Ratified P=Provisional,P*=As supplied
,,York Fishergate,,,,,,,,,,,,,,,,,,,,,,,
Date,time,"PM<sub>10</sub> particulate matter (Hourly measured)",status,unit,"Nitric oxide",status,unit,"Nitrogen dioxide",status,unit,"Nitrogen oxides as nitrogen dioxide",status,unit
 
01-01-2009,01:00,53,R,ugm-3 (VCM),6,R,ugm-3,29,R,ugm-3,38,R,ugm-3
01-01-2009,02:00,40,R,ugm-3 (VCM),5,R,ugm-3,27,R,ugm-3,34,R,ugm-3
01-01-2009,03:00,41,R,ugm-3 (VCM),9,R,ugm-3,29,R,ugm-3,42,R,ugm-3
01-01-2009,04:00,36,R,ugm-3 (VCM),4,R,ugm-3,27,R,ugm-3,32,R,ugm-3
01-01-2009,05:00,38,R,ugm-3 (VCM),6,R,ugm-3,25,R,ugm-3,34,R,ugm-3
01-01-2009,06:00,36,R,ugm-3 (VCM),3,R,ugm-3,23,R,ugm-3,27,R,ugm-3
01-01-2009,07:00,34,R,ugm-3 (VCM),3,R,ugm-3,21,R,ugm-3,25,R,ugm-3
01-01-2009,08:00,33,R,ugm-3 (VCM),5,R,ugm-3,32,R,ugm-3,40,R,ugm-3
01-01-2009,09:00,35,R,ugm-3 (VCM),4,R,ugm-3,29,R,ugm-3,34,R,ugm-3
01-01-2009,10:00,40,R,ugm-3 (VCM),16,R,ugm-3,36,R,ugm-3,61,R,ugm-3
01-01-2009,11:00,40,R,ugm-3 (VCM),14,R,ugm-3,34,R,ugm-3,55,R,ugm-3
01-01-2009,12:00,45,R,ugm-3 (VCM),36,R,ugm-3,46,R,ugm-3,101,R,ugm-3
01-01-2009,13:00,50,R,ugm-3 (VCM),49,R,ugm-3,52,R,ugm-3,126,R,ugm-3
01-01-2009,14:00,54,R,ugm-3 (VCM),26,R,ugm-3,44,R,ugm-3,84,R,ugm-3
01-01-2009,15:00,62,R,ugm-3 (VCM),43,R,ugm-3,52,R,ugm-3,117,R,ugm-3
01-01-2009,16:00,49,R,ugm-3 (VCM),24,R,ugm-3,46,R,ugm-3,82,R,ugm-3
01-01-2009,17:00,51,R,ugm-3 (VCM),24,R,ugm-3,52,R,ugm-3,88,R,ugm-3
01-01-2009,18:00,50,R,ugm-3 (VCM),28,R,ugm-3,53,R,ugm-3,96,R,ugm-3
01-01-2009,19:00,49,R,ugm-3 (VCM),29,R,ugm-3,53,R,ugm-3,97,R,ugm-3
01-01-2009,20:00,52,R,ugm-3 (VCM),30,R,ugm-3,55,R,ugm-3,101,R,ugm-3
01-01-2009,21:00,52,R,ugm-3 (VCM),25,R,ugm-3,50,R,ugm-3,88,R,ugm-3
01-01-2009,22:00,48,R,ugm-3 (VCM),9,R,ugm-3,38,R,ugm-3,52,R,ugm-3
01-01-2009,23:00,50,R,ugm-3 (VCM),14,R,ugm-3,36,R,ugm-3,57,R,ugm-3
01-01-2009,24:00,45,R,ugm-3 (VCM),4,R,ugm-3,25,R,ugm-3,31,R,ugm-3
02-01-2009,01:00,27,R,ugm-3 (VCM),3,R,ugm-3,21,R,ugm-3,25,R,ugm-3
02-01-2009,02:00,39,R,ugm-3 (VCM),5,R,ugm-3,27,R,ugm-3,34,R,ugm-3
02-01-2009,03:00,41,R,ugm-3 (VCM),4,R,ugm-3,25,R,ugm-3,31,R,ugm-3
02-01-2009,04:00,36,R,ugm-3 (VCM),8,R,ugm-3,29,R,ugm-3,40,R,ugm-3
02-01-2009,05:00,35,R,ugm-3 (VCM),9,R,ugm-3,32,R,ugm-3,46,R,ugm-3
02-01-2009,06:00,29,R,ugm-3 (VCM),4,R,ugm-3,29,R,ugm-3,34,R,ugm-3
02-01-2009,07:00,28,R,ugm-3 (VCM),13,R,ugm-3,31,R,ugm-3,50,R,ugm-3
02-01-2009,08:00,29,R,ugm-3 (VCM),99,R,ugm-3,65,R,ugm-3,216,R,ugm-3
02-01-2009,09:00,32,R,ugm-3 (VCM),139,R,ugm-3,82,R,ugm-3,294,R,ugm-3
02-01-2009,10:00,23,R,ugm-3 (VCM),88,R,ugm-3,76,R,ugm-3,210,R,ugm-3
02-01-2009,11:00,26,R,ugm-3 (VCM),88,R,ugm-3,78,R,ugm-3,212,R,ugm-3
02-01-2009,12:00,27,R,ugm-3 (VCM),100,R,ugm-3,82,R,ugm-3,235,R,ugm-3
02-01-2009,13:00,23,R,ugm-3 (VCM),93,R,ugm-3,78,R,ugm-3,220,R,ugm-3
02-01-2009,14:00,26,R,ugm-3 (VCM),120,R,ugm-3,90,R,ugm-3,273,R,ugm-3
02-01-2009,15:00,20,R,ugm-3 (VCM),58,R,ugm-3,63,R,ugm-3,151,R,ugm-3
02-01-2009,16:00,39,R,ugm-3 (VCM),80,R,ugm-3,82,R,ugm-3,204,R,ugm-3
02-01-2009,17:00,54,R,ugm-3 (VCM),133,R,ugm-3,107,R,ugm-3,309,R,ugm-3
02-01-2009,18:00,53,R,ugm-3 (VCM),140,R,ugm-3,113,R,ugm-3,327,R,ugm-3
02-01-2009,19:00,49,R,ugm-3 (VCM),109,R,ugm-3,101,R,ugm-3,267,R,ugm-3
02-01-2009,20:00,35,R,ugm-3 (VCM),120,R,ugm-3,101,R,ugm-3,285,R,ugm-3
02-01-2009,21:00,37,R,ugm-3 (VCM),113,R,ugm-3,97,R,ugm-3,269,R,ugm-3
02-01-2009,22:00,36,R,ugm-3 (VCM),134,R,ugm-3,101,R,ugm-3,306,R,ugm-3
02-01-2009,23:00,37,R,ugm-3 (VCM),133,R,ugm-3,99,R,ugm-3,302,R,ugm-3
02-01-2009,24:00,42,R,ugm-3 (VCM),144,R,ugm-3,97,R,ugm-3,317,R,ugm-3
03-01-2009,01:00,39,R,ugm-3 (VCM),134,R,ugm-3,92,R,ugm-3,296,R,ugm-3
03-01-2009,02:00,31,R,ugm-3 (VCM),101,R,ugm-3,78,R,ugm-3,233,R,ugm-3
03-01-2009,03:00,30,R,ugm-3 (VCM),66,R,ugm-3,69,R,ugm-3,170,R,ugm-3
03-01-2009,04:00,24,R,ugm-3 (VCM),64,R,ugm-3,59,R,ugm-3,157,R,ugm-3
03-01-2009,05:00,26,R,ugm-3 (VCM),74,R,ugm-3,59,R,ugm-3,172,R,ugm-3
03-01-2009,06:00,27,R,ugm-3 (VCM),71,R,ugm-3,57,R,ugm-3,166,R,ugm-3
03-01-2009,07:00,24,R,ugm-3 (VCM),49,R,ugm-3,57,R,ugm-3,132,R,ugm-3
03-01-2009,08:00,15,R,ugm-3 (VCM),35,R,ugm-3,59,R,ugm-3,113,R,ugm-3
03-01-2009,09:00,14,R,ugm-3 (VCM),60,R,ugm-3,67,R,ugm-3,159,R,ugm-3
03-01-2009,10:00,14,R,ugm-3 (VCM),53,R,ugm-3,67,R,ugm-3,147,R,ugm-3
03-01-2009,11:00,16,R,ugm-3 (VCM),51,R,ugm-3,69,R,ugm-3,147,R,ugm-3
03-01-2009,12:00,50,R,ugm-3 (VCM),35,R,ugm-3,57,R,ugm-3,111,R,ugm-3
03-01-2009,13:00,69,R,ugm-3 (VCM),34,R,ugm-3,42,R,ugm-3,94,R,ugm-3
03-01-2009,14:00,51,R,ugm-3 (VCM),26,R,ugm-3,38,R,ugm-3,78,R,ugm-3
03-01-2009,15:00,44,R,ugm-3 (VCM),31,R,ugm-3,42,R,ugm-3,90,R,ugm-3
03-01-2009,16:00,60,R,ugm-3 (VCM),59,R,ugm-3,67,R,ugm-3,157,R,ugm-3
03-01-2009,17:00,113,R,ugm-3 (VCM),116,R,ugm-3,96,R,ugm-3,273,R,ugm-3
03-01-2009,18:00,62,R,ugm-3 (VCM),81,R,ugm-3,92,R,ugm-3,216,R,ugm-3
03-01-2009,19:00,50,R,ugm-3 (VCM),76,R,ugm-3,86,R,ugm-3,202,R,ugm-3
03-01-2009,20:00,29,R,ugm-3 (VCM),39,R,ugm-3,71,R,ugm-3,130,R,ugm-3
03-01-2009,21:00,29,R,ugm-3 (VCM),20,R,ugm-3,65,R,ugm-3,96,R,ugm-3
03-01-2009,22:00,30,R,ugm-3 (VCM),31,R,ugm-3,65,R,ugm-3,113,R,ugm-3
03-01-2009,23:00,32,R,ugm-3 (VCM),23,R,ugm-3,63,R,ugm-3,97,R,ugm-3
03-01-2009,24:00,27,R,ugm-3 (VCM),20,R,ugm-3,50,R,ugm-3,80,R,ugm-3
04-01-2009,01:00,23,R,ugm-3 (VCM),13,R,ugm-3,40,R,ugm-3,59,R,ugm-3
04-01-2009,02:00,19,R,ugm-3 (VCM),3,R,ugm-3,29,R,ugm-3,32,R,ugm-3
04-01-2009,03:00,16,R,ugm-3 (VCM),4,R,ugm-3,34,R,ugm-3,40,R,ugm-3
04-01-2009,04:00,18,R,ugm-3 (VCM),4,R,ugm-3,29,R,ugm-3,34,R,ugm-3
04-01-2009,05:00,17,R,ugm-3 (VCM),11,R,ugm-3,31,R,ugm-3,48,R,ugm-3
04-01-2009,06:00,18,R,ugm-3 (VCM),4,R,ugm-3,31,R,ugm-3,36,R,ugm-3
04-01-2009,07:00,15,R,ugm-3 (VCM),5,R,ugm-3,36,R,ugm-3,44,R,ugm-3
04-01-2009,08:00,15,R,ugm-3 (VCM),14,R,ugm-3,50,R,ugm-3,71,R,ugm-3
04-01-2009,09:00,15,R,ugm-3 (VCM),10,R,ugm-3,42,R,ugm-3,57,R,ugm-3
04-01-2009,10:00,17,R,ugm-3 (VCM),25,R,ugm-3,53,R,ugm-3,92,R,ugm-3
04-01-2009,11:00,21,R,ugm-3 (VCM),31,R,ugm-3,53,R,ugm-3,101,R,ugm-3
04-01-2009,12:00,23,R,ugm-3 (VCM),40,R,ugm-3,50,R,ugm-3,111,R,ugm-3
04-01-2009,13:00,22,R,ugm-3 (VCM),39,R,ugm-3,52,R,ugm-3,111,R,ugm-3
04-01-2009,14:00,22,R,ugm-3 (VCM),38,R,ugm-3,55,R,ugm-3,113,R,ugm-3
04-01-2009,15:00,30,R,ugm-3 (VCM),58,R,ugm-3,65,R,ugm-3,153,R,ugm-3
04-01-2009,16:00,31,R,ugm-3 (VCM),85,R,ugm-3,76,R,ugm-3,206,R,ugm-3
04-01-2009,17:00,32,R,ugm-3 (VCM),96,R,ugm-3,78,R,ugm-3,225,R,ugm-3
04-01-2009,18:00,35,R,ugm-3 (VCM),73,R,ugm-3,74,R,ugm-3,185,R,ugm-3
04-01-2009,19:00,34,R,ugm-3 (VCM),50,R,ugm-3,65,R,ugm-3,141,R,ugm-3
04-01-2009,20:00,30,R,ugm-3 (VCM),33,R,ugm-3,61,R,ugm-3,111,R,ugm-3
04-01-2009,21:00,27,R,ugm-3 (VCM),19,R,ugm-3,53,R,ugm-3,82,R,ugm-3
04-01-2009,22:00,28,R,ugm-3 (VCM),21,R,ugm-3,52,R,ugm-3,84,R,ugm-3
04-01-2009,23:00,23,R,ugm-3 (VCM),5,R,ugm-3,29,R,ugm-3,36,R,ugm-3
04-01-2009,24:00,17,R,ugm-3 (VCM),11,R,ugm-3,29,R,ugm-3,46,R,ugm-3
05-01-2009,01:00,9,R,ugm-3 (VCM),8,R,ugm-3,21,R,ugm-3,32,R,ugm-3
05-01-2009,02:00,10,R,ugm-3 (VCM),5,R,ugm-3,25,R,ugm-3,32,R,ugm-3
05-01-2009,03:00,9,R,ugm-3 (VCM),4,R,ugm-3,27,R,ugm-3,32,R,ugm-3
05-01-2009,04:00,7,R,ugm-3 (VCM),3,R,ugm-3,15,R,ugm-3,19,R,ugm-3
05-01-2009,05:00,8,R,ugm-3 (VCM),4,R,ugm-3,10,R,ugm-3,15,R,ugm-3
05-01-2009,06:00,5,R,ugm-3 (VCM),15,R,ugm-3,32,R,ugm-3,55,R,ugm-3
05-01-2009,07:00,10,R,ugm-3 (VCM),23,R,ugm-3,52,R,ugm-3,86,R,ugm-3
05-01-2009,08:00,11,R,ugm-3 (VCM),46,R,ugm-3,67,R,ugm-3,138,R,ugm-3
05-01-2009,09:00,20,R,ugm-3 (VCM),100,R,ugm-3,92,R,ugm-3,244,R,ugm-3
05-01-2009,10:00,26,R,ugm-3 (VCM),131,R,ugm-3,99,R,ugm-3,300,R,ugm-3
05-01-2009,11:00,,,,,,,,,,,,
05-01-2009,12:00,17,R,ugm-3 (VCM),38,R,ugm-3,53,R,ugm-3,111,R,ugm-3
05-01-2009,13:00,21,R,ugm-3 (VCM),46,R,ugm-3,55,R,ugm-3,126,R,ugm-3
05-01-2009,14:00,74,R,ugm-3 (VCM),58,R,ugm-3,65,R,ugm-3,153,R,ugm-3
05-01-2009,15:00,145,R,ugm-3 (VCM),49,R,ugm-3,63,R,ugm-3,138,R,ugm-3
05-01-2009,16:00,111,R,ugm-3 (VCM),40,R,ugm-3,61,R,ugm-3,122,R,ugm-3
05-01-2009,17:00,151,R,ugm-3 (VCM),84,R,ugm-3,84,R,ugm-3,212,R,ugm-3
05-01-2009,18:00,140,R,ugm-3 (VCM),85,R,ugm-3,90,R,ugm-3,220,R,ugm-3
05-01-2009,19:00,141,R,ugm-3 (VCM),61,R,ugm-3,78,R,ugm-3,172,R,ugm-3
05-01-2009,20:00,91,R,ugm-3 (VCM),36,R,ugm-3,65,R,ugm-3,120,R,ugm-3
05-01-2009,21:00,66,R,ugm-3 (VCM),25,R,ugm-3,57,R,ugm-3,96,R,ugm-3
05-01-2009,22:00,51,R,ugm-3 (VCM),21,R,ugm-3,57,R,ugm-3,90,R,ugm-3
05-01-2009,23:00,49,R,ugm-3 (VCM),19,R,ugm-3,57,R,ugm-3,86,R,ugm-3
05-01-2009,24:00,53,R,ugm-3 (VCM),21,R,ugm-3,52,R,ugm-3,84,R,ugm-3
06-01-2009,01:00,28,R,ugm-3 (VCM),4,R,ugm-3,34,R,ugm-3,40,R,ugm-3
06-01-2009,02:00,20,R,ugm-3 (VCM),1,R,ugm-3,21,R,ugm-3,23,R,ugm-3
06-01-2009,03:00,19,R,ugm-3 (VCM),3,R,ugm-3,27,R,ugm-3,31,R,ugm-3
06-01-2009,04:00,13,R,ugm-3 (VCM),3,R,ugm-3,25,R,ugm-3,29,R,ugm-3
06-01-2009,05:00,14,R,ugm-3 (VCM),4,R,ugm-3,25,R,ugm-3,31,R,ugm-3
06-01-2009,06:00,19,R,ugm-3 (VCM),6,R,ugm-3,25,R,ugm-3,34,R,ugm-3
06-01-2009,07:00,24,R,ugm-3 (VCM),18,R,ugm-3,42,R,ugm-3,69,R,ugm-3
06-01-2009,08:00,36,R,ugm-3 (VCM),35,R,ugm-3,55,R,ugm-3,109,R,ugm-3
06-01-2009,09:00,38,R,ugm-3 (VCM),68,R,ugm-3,74,R,ugm-3,178,R,ugm-3
06-01-2009,10:00,53,R,ugm-3 (VCM),83,R,ugm-3,78,R,ugm-3,204,R,ugm-3
06-01-2009,11:00,42,R,ugm-3 (VCM),64,R,ugm-3,69,R,ugm-3,166,R,ugm-3
06-01-2009,12:00,54,R,ugm-3 (VCM),68,R,ugm-3,67,R,ugm-3,170,R,ugm-3
06-01-2009,13:00,52,R,ugm-3 (VCM),45,R,ugm-3,53,R,ugm-3,122,R,ugm-3
06-01-2009,14:00,40,R,ugm-3 (VCM),31,R,ugm-3,36,R,ugm-3,84,R,ugm-3
06-01-2009,15:00,39,R,ugm-3 (VCM),36,R,ugm-3,44,R,ugm-3,99,R,ugm-3
06-01-2009,16:00,43,R,ugm-3 (VCM),49,R,ugm-3,57,R,ugm-3,132,R,ugm-3
06-01-2009,17:00,72,R,ugm-3 (VCM),95,R,ugm-3,84,R,ugm-3,229,R,ugm-3
06-01-2009,18:00,96,R,ugm-3 (VCM),64,R,ugm-3,74,R,ugm-3,172,R,ugm-3
06-01-2009,19:00,53,R,ugm-3 (VCM),50,R,ugm-3,73,R,ugm-3,149,R,ugm-3
06-01-2009,20:00,29,R,ugm-3 (VCM),43,R,ugm-3,65,R,ugm-3,130,R,ugm-3
06-01-2009,21:00,27,R,ugm-3 (VCM),30,R,ugm-3,61,R,ugm-3,107,R,ugm-3
06-01-2009,22:00,26,R,ugm-3 (VCM),21,R,ugm-3,50,R,ugm-3,82,R,ugm-3
06-01-2009,23:00,21,R,ugm-3 (VCM),11,R,ugm-3,42,R,ugm-3,59,R,ugm-3
06-01-2009,24:00,17,R,ugm-3 (VCM),8,R,ugm-3,31,R,ugm-3,42,R,ugm-3
07-01-2009,01:00,17,R,ugm-3 (VCM),3,R,ugm-3,23,R,ugm-3,27,R,ugm-3
07-01-2009,02:00,13,R,ugm-3 (VCM),1,R,ugm-3,17,R,ugm-3,19,R,ugm-3
07-01-2009,03:00,13,R,ugm-3 (VCM),1,R,ugm-3,21,R,ugm-3,23,R,ugm-3
07-01-2009,04:00,13,R,ugm-3 (VCM),1,R,ugm-3,17,R,ugm-3,19,R,ugm-3
07-01-2009,05:00,9,R,ugm-3 (VCM),1,R,ugm-3,17,R,ugm-3,19,R,ugm-3
07-01-2009,06:00,11,R,ugm-3 (VCM),4,R,ugm-3,27,R,ugm-3,32,R,ugm-3
07-01-2009,07:00,12,R,ugm-3 (VCM),24,R,ugm-3,44,R,ugm-3,80,R,ugm-3
07-01-2009,08:00,15,R,ugm-3 (VCM),78,R,ugm-3,65,R,ugm-3,183,R,ugm-3
07-01-2009,09:00,24,R,ugm-3 (VCM),135,R,ugm-3,88,R,ugm-3,294,R,ugm-3
07-01-2009,10:00,26,R,ugm-3 (VCM),124,R,ugm-3,88,R,ugm-3,277,R,ugm-3
07-01-2009,11:00,26,R,ugm-3 (VCM),105,R,ugm-3,84,R,ugm-3,244,R,ugm-3
07-01-2009,12:00,27,R,ugm-3 (VCM),86,R,ugm-3,73,R,ugm-3,204,R,ugm-3
07-01-2009,13:00,24,R,ugm-3 (VCM),64,R,ugm-3,69,R,ugm-3,166,R,ugm-3
07-01-2009,14:00,25,R,ugm-3 (VCM),65,R,ugm-3,65,R,ugm-3,164,R,ugm-3
07-01-2009,15:00,25,R,ugm-3 (VCM),90,R,ugm-3,69,R,ugm-3,206,R,ugm-3
07-01-2009,16:00,33,R,ugm-3 (VCM),108,R,ugm-3,78,R,ugm-3,243,R,ugm-3
07-01-2009,17:00,30,R,ugm-3 (VCM),136,R,ugm-3,86,R,ugm-3,294,R,ugm-3
07-01-2009,18:00,28,R,ugm-3 (VCM),119,R,ugm-3,80,R,ugm-3,262,R,ugm-3
07-01-2009,19:00,30,R,ugm-3 (VCM),110,R,ugm-3,78,R,ugm-3,246,R,ugm-3
07-01-2009,20:00,31,R,ugm-3 (VCM),50,R,ugm-3,63,R,ugm-3,139,R,ugm-3
07-01-2009,21:00,31,R,ugm-3 (VCM),41,R,ugm-3,61,R,ugm-3,124,R,ugm-3
07-01-2009,22:00,38,R,ugm-3 (VCM),86,R,ugm-3,71,R,ugm-3,202,R,ugm-3
07-01-2009,23:00,36,R,ugm-3 (VCM),69,R,ugm-3,71,R,ugm-3,176,R,ugm-3
07-01-2009,24:00,31,R,ugm-3 (VCM),45,R,ugm-3,63,R,ugm-3,132,R,ugm-3
08-01-2009,01:00,24,R,ugm-3 (VCM),25,R,ugm-3,59,R,ugm-3,97,R,ugm-3
08-01-2009,02:00,20,R,ugm-3 (VCM),15,R,ugm-3,53,R,ugm-3,76,R,ugm-3
08-01-2009,03:00,19,R,ugm-3 (VCM),18,R,ugm-3,53,R,ugm-3,80,R,ugm-3
08-01-2009,04:00,19,R,ugm-3 (VCM),15,R,ugm-3,50,R,ugm-3,73,R,ugm-3
08-01-2009,05:00,20,R,ugm-3 (VCM),13,R,ugm-3,50,R,ugm-3,69,R,ugm-3
08-01-2009,06:00,20,R,ugm-3 (VCM),15,R,ugm-3,48,R,ugm-3,71,R,ugm-3
08-01-2009,07:00,21,R,ugm-3 (VCM),38,R,ugm-3,50,R,ugm-3,107,R,ugm-3
08-01-2009,08:00,24,R,ugm-3 (VCM),119,R,ugm-3,74,R,ugm-3,256,R,ugm-3
08-01-2009,09:00,33,R,ugm-3 (VCM),134,R,ugm-3,82,R,ugm-3,287,R,ugm-3
08-01-2009,10:00,26,R,ugm-3 (VCM),86,R,ugm-3,63,R,ugm-3,195,R,ugm-3
08-01-2009,11:00,30,R,ugm-3 (VCM),86,R,ugm-3,65,R,ugm-3,197,R,ugm-3
08-01-2009,12:00,28,R,ugm-3 (VCM),48,R,ugm-3,48,R,ugm-3,120,R,ugm-3
08-01-2009,13:00,23,R,ugm-3 (VCM),45,R,ugm-3,42,R,ugm-3,111,R,ugm-3
08-01-2009,14:00,22,R,ugm-3 (VCM),36,R,ugm-3,40,R,ugm-3,96,R,ugm-3
08-01-2009,15:00,26,R,ugm-3 (VCM),53,R,ugm-3,52,R,ugm-3,132,R,ugm-3
08-01-2009,16:00,22,R,ugm-3 (VCM),60,R,ugm-3,59,R,ugm-3,151,R,ugm-3
08-01-2009,17:00,23,R,ugm-3 (VCM),74,R,ugm-3,71,R,ugm-3,183,R,ugm-3
08-01-2009,18:00,25,R,ugm-3 (VCM),85,R,ugm-3,78,R,ugm-3,208,R,ugm-3
08-01-2009,19:00,32,R,ugm-3 (VCM),119,R,ugm-3,97,R,ugm-3,279,R,ugm-3
08-01-2009,20:00,34,R,ugm-3 (VCM),116,R,ugm-3,92,R,ugm-3,269,R,ugm-3
08-01-2009,21:00,37,R,ugm-3 (VCM),60,R,ugm-3,78,R,ugm-3,170,R,ugm-3
08-01-2009,22:00,33,R,ugm-3 (VCM),45,R,ugm-3,71,R,ugm-3,139,R,ugm-3
08-01-2009,23:00,30,R,ugm-3 (VCM),28,R,ugm-3,61,R,ugm-3,103,R,ugm-3
08-01-2009,24:00,30,R,ugm-3 (VCM),18,R,ugm-3,55,R,ugm-3,82,R,ugm-3
09-01-2009,01:00,40,R,ugm-3 (VCM),29,R,ugm-3,55,R,ugm-3,99,R,ugm-3
09-01-2009,02:00,26,R,ugm-3 (VCM),26,R,ugm-3,52,R,ugm-3,92,R,ugm-3
09-01-2009,03:00,29,R,ugm-3 (VCM),18,R,ugm-3,46,R,ugm-3,73,R,ugm-3
09-01-2009,04:00,29,R,ugm-3 (VCM),8,R,ugm-3,42,R,ugm-3,53,R,ugm-3
09-01-2009,05:00,27,R,ugm-3 (VCM),9,R,ugm-3,44,R,ugm-3,57,R,ugm-3
09-01-2009,06:00,28,R,ugm-3 (VCM),13,R,ugm-3,38,R,ugm-3,57,R,ugm-3
09-01-2009,07:00,28,R,ugm-3 (VCM),21,R,ugm-3,40,R,ugm-3,73,R,ugm-3
09-01-2009,08:00,27,R,ugm-3 (VCM),68,R,ugm-3,53,R,ugm-3,157,R,ugm-3
09-01-2009,09:00,38,R,ugm-3 (VCM),96,R,ugm-3,65,R,ugm-3,212,R,ugm-3
09-01-2009,10:00,37,R,ugm-3 (VCM),71,R,ugm-3,57,R,ugm-3,166,R,ugm-3
09-01-2009,11:00,30,R,ugm-3 (VCM),66,R,ugm-3,59,R,ugm-3,160,R,ugm-3
09-01-2009,12:00,31,R,ugm-3 (VCM),53,R,ugm-3,52,R,ugm-3,132,R,ugm-3
09-01-2009,13:00,29,R,ugm-3 (VCM),49,R,ugm-3,52,R,ugm-3,126,R,ugm-3
09-01-2009,14:00,31,R,ugm-3 (VCM),54,R,ugm-3,59,R,ugm-3,141,R,ugm-3
09-01-2009,15:00,35,R,ugm-3 (VCM),104,R,ugm-3,78,R,ugm-3,237,R,ugm-3
09-01-2009,16:00,36,R,ugm-3 (VCM),74,R,ugm-3,74,R,ugm-3,187,R,ugm-3
09-01-2009,17:00,33,R,ugm-3 (VCM),80,R,ugm-3,69,R,ugm-3,191,R,ugm-3
09-01-2009,18:00,35,R,ugm-3 (VCM),76,R,ugm-3,74,R,ugm-3,191,R,ugm-3
09-01-2009,19:00,39,R,ugm-3 (VCM),66,R,ugm-3,71,R,ugm-3,172,R,ugm-3
09-01-2009,20:00,46,R,ugm-3 (VCM),55,R,ugm-3,69,R,ugm-3,153,R,ugm-3
09-01-2009,21:00,51,R,ugm-3 (VCM),58,R,ugm-3,69,R,ugm-3,157,R,ugm-3
09-01-2009,22:00,46,R,ugm-3 (VCM),50,R,ugm-3,67,R,ugm-3,143,R,ugm-3
09-01-2009,23:00,41,R,ugm-3 (VCM),30,R,ugm-3,61,R,ugm-3,107,R,ugm-3
09-01-2009,24:00,41,R,ugm-3 (VCM),26,R,ugm-3,57,R,ugm-3,97,R,ugm-3
10-01-2009,01:00,35,R,ugm-3 (VCM),18,R,ugm-3,57,R,ugm-3,84,R,ugm-3
10-01-2009,02:00,38,R,ugm-3 (VCM),11,R,ugm-3,55,R,ugm-3,73,R,ugm-3
10-01-2009,03:00,37,R,ugm-3 (VCM),13,R,ugm-3,57,R,ugm-3,76,R,ugm-3
10-01-2009,04:00,34,R,ugm-3 (VCM),10,R,ugm-3,55,R,ugm-3,71,R,ugm-3
10-01-2009,05:00,34,R,ugm-3 (VCM),13,R,ugm-3,57,R,ugm-3,76,R,ugm-3
10-01-2009,06:00,40,R,ugm-3 (VCM),19,R,ugm-3,59,R,ugm-3,88,R,ugm-3
10-01-2009,07:00,45,R,ugm-3 (VCM),33,R,ugm-3,65,R,ugm-3,115,R,ugm-3
10-01-2009,08:00,41,R,ugm-3 (VCM),49,R,ugm-3,67,R,ugm-3,141,R,ugm-3
10-01-2009,09:00,40,R,ugm-3 (VCM),65,R,ugm-3,71,R,ugm-3,170,R,ugm-3
10-01-2009,10:00,41,R,ugm-3 (VCM),56,R,ugm-3,65,R,ugm-3,151,R,ugm-3
10-01-2009,11:00,41,R,ugm-3 (VCM),44,R,ugm-3,57,R,ugm-3,124,R,ugm-3
10-01-2009,12:00,42,R,ugm-3 (VCM),48,R,ugm-3,48,R,ugm-3,120,R,ugm-3
10-01-2009,13:00,46,R,ugm-3 (VCM),55,R,ugm-3,52,R,ugm-3,136,R,ugm-3
10-01-2009,14:00,49,R,ugm-3 (VCM),50,R,ugm-3,53,R,ugm-3,130,R,ugm-3
10-01-2009,15:00,44,R,ugm-3 (VCM),41,R,ugm-3,55,R,ugm-3,118,R,ugm-3
10-01-2009,16:00,42,R,ugm-3 (VCM),45,R,ugm-3,61,R,ugm-3,130,R,ugm-3
10-01-2009,17:00,39,R,ugm-3 (VCM),34,R,ugm-3,63,R,ugm-3,115,R,ugm-3
10-01-2009,18:00,41,R,ugm-3 (VCM),20,R,ugm-3,57,R,ugm-3,88,R,ugm-3
10-01-2009,19:00,37,R,ugm-3 (VCM),24,R,ugm-3,55,R,ugm-3,92,R,ugm-3
10-01-2009,20:00,43,R,ugm-3 (VCM),20,R,ugm-3,57,R,ugm-3,88,R,ugm-3
10-01-2009,21:00,41,R,ugm-3 (VCM),13,R,ugm-3,52,R,ugm-3,71,R,ugm-3
10-01-2009,22:00,38,R,ugm-3 (VCM),15,R,ugm-3,46,R,ugm-3,69,R,ugm-3
10-01-2009,23:00,41,R,ugm-3 (VCM),13,R,ugm-3,46,R,ugm-3,65,R,ugm-3
10-01-2009,24:00,37,R,ugm-3 (VCM),9,R,ugm-3,40,R,ugm-3,53,R,ugm-3
11-01-2009,01:00,26,R,ugm-3 (VCM),6,R,ugm-3,29,R,ugm-3,38,R,ugm-3
11-01-2009,02:00,26,R,ugm-3 (VCM),5,R,ugm-3,21,R,ugm-3,29,R,ugm-3
11-01-2009,03:00,29,R,ugm-3 (VCM),4,R,ugm-3,19,R,ugm-3,25,R,ugm-3
11-01-2009,04:00,23,R,ugm-3 (VCM),3,R,ugm-3,15,R,ugm-3,19,R,ugm-3
11-01-2009,05:00,24,R,ugm-3 (VCM),5,R,ugm-3,15,R,ugm-3,23,R,ugm-3
11-01-2009,06:00,22,R,ugm-3 (VCM),3,R,ugm-3,13,R,ugm-3,17,R,ugm-3
11-01-2009,07:00,20,R,ugm-3 (VCM),3,R,ugm-3,17,R,ugm-3,21,R,ugm-3
11-01-2009,08:00,19,R,ugm-3 (VCM),3,R,ugm-3,15,R,ugm-3,19,R,ugm-3
11-01-2009,09:00,19,R,ugm-3 (VCM),4,R,ugm-3,19,R,ugm-3,25,R,ugm-3
11-01-2009,10:00,18,R,ugm-3 (VCM),5,R,ugm-3,21,R,ugm-3,29,R,ugm-3
11-01-2009,11:00,18,R,ugm-3 (VCM),11,R,ugm-3,23,R,ugm-3,40,R,ugm-3
11-01-2009,12:00,18,R,ugm-3 (VCM),18,R,ugm-3,31,R,ugm-3,57,R,ugm-3
11-01-2009,13:00,16,R,ugm-3 (VCM),14,R,ugm-3,21,R,ugm-3,42,R,ugm-3
11-01-2009,14:00,19,R,ugm-3 (VCM),15,R,ugm-3,27,R,ugm-3,50,R,ugm-3
11-01-2009,15:00,19,R,ugm-3 (VCM),13,R,ugm-3,27,R,ugm-3,46,R,ugm-3
11-01-2009,16:00,19,R,ugm-3 (VCM),15,R,ugm-3,31,R,ugm-3,53,R,ugm-3
11-01-2009,17:00,18,R,ugm-3 (VCM),16,R,ugm-3,36,R,ugm-3,61,R,ugm-3
11-01-2009,18:00,20,R,ugm-3 (VCM),10,R,ugm-3,31,R,ugm-3,46,R,ugm-3
11-01-2009,19:00,18,R,ugm-3 (VCM),10,R,ugm-3,25,R,ugm-3,40,R,ugm-3
11-01-2009,20:00,15,R,ugm-3 (VCM),4,R,ugm-3,19,R,ugm-3,25,R,ugm-3
11-01-2009,21:00,19,R,ugm-3 (VCM),5,R,ugm-3,17,R,ugm-3,25,R,ugm-3
11-01-2009,22:00,15,R,ugm-3 (VCM),6,R,ugm-3,15,R,ugm-3,25,R,ugm-3
11-01-2009,23:00,17,R,ugm-3 (VCM),3,R,ugm-3,13,R,ugm-3,17,R,ugm-3
11-01-2009,24:00,15,R,ugm-3 (VCM),3,R,ugm-3,13,R,ugm-3,17,R,ugm-3
12-01-2009,01:00,13,R,ugm-3 (VCM),3,R,ugm-3,11,R,ugm-3,15,R,ugm-3
12-01-2009,02:00,15,R,ugm-3 (VCM),4,R,ugm-3,11,R,ugm-3,17,R,ugm-3
12-01-2009,03:00,14,R,ugm-3 (VCM),1,R,ugm-3,10,R,ugm-3,11,R,ugm-3
12-01-2009,04:00,12,R,ugm-3 (VCM),1,R,ugm-3,10,R,ugm-3,11,R,ugm-3
12-01-2009,05:00,8,R,ugm-3 (VCM),3,R,ugm-3,11,R,ugm-3,15,R,ugm-3
12-01-2009,06:00,6,R,ugm-3 (VCM),3,R,ugm-3,13,R,ugm-3,17,R,ugm-3
12-01-2009,07:00,8,R,ugm-3 (VCM),5,R,ugm-3,13,R,ugm-3,21,R,ugm-3
12-01-2009,08:00,7,R,ugm-3 (VCM),24,R,ugm-3,36,R,ugm-3,73,R,ugm-3
12-01-2009,09:00,10,R,ugm-3 (VCM),28,R,ugm-3,38,R,ugm-3,80,R,ugm-3
12-01-2009,10:00,13,R,ugm-3 (VCM),30,R,ugm-3,40,R,ugm-3,86,R,ugm-3
12-01-2009,11:00,9,R,ugm-3 (VCM),23,R,ugm-3,38,R,ugm-3,73,R,ugm-3
12-01-2009,12:00,17,R,ugm-3 (VCM),26,R,ugm-3,38,R,ugm-3,78,R,ugm-3
12-01-2009,13:00,16,R,ugm-3 (VCM),29,R,ugm-3,40,R,ugm-3,84,R,ugm-3
12-01-2009,14:00,14,R,ugm-3 (VCM),31,R,ugm-3,42,R,ugm-3,90,R,ugm-3
12-01-2009,15:00,13,R,ugm-3 (VCM),34,R,ugm-3,50,R,ugm-3,101,R,ugm-3
12-01-2009,16:00,18,R,ugm-3 (VCM),59,R,ugm-3,69,R,ugm-3,159,R,ugm-3
12-01-2009,17:00,20,R,ugm-3 (VCM),63,R,ugm-3,67,R,ugm-3,162,R,ugm-3
12-01-2009,18:00,22,R,ugm-3 (VCM),70,R,ugm-3,76,R,ugm-3,183,R,ugm-3
12-01-2009,19:00,23,R,ugm-3 (VCM),44,R,ugm-3,63,R,ugm-3,130,R,ugm-3
12-01-2009,20:00,27,R,ugm-3 (VCM),39,R,ugm-3,78,R,ugm-3,138,R,ugm-3
12-01-2009,21:00,23,R,ugm-3 (VCM),20,R,ugm-3,67,R,ugm-3,97,R,ugm-3
12-01-2009,22:00,22,R,ugm-3 (VCM),33,R,ugm-3,69,R,ugm-3,118,R,ugm-3
12-01-2009,23:00,23,R,ugm-3 (VCM),13,R,ugm-3,65,R,ugm-3,84,R,ugm-3
12-01-2009,24:00,23,R,ugm-3 (VCM),9,R,ugm-3,59,R,ugm-3,73,R,ugm-3
13-01-2009,01:00,20,R,ugm-3 (VCM),5,R,ugm-3,50,R,ugm-3,57,R,ugm-3
13-01-2009,02:00,12,R,ugm-3 (VCM),1,R,ugm-3,32,R,ugm-3,34,R,ugm-3
13-01-2009,03:00,10,R,ugm-3 (VCM),1,R,ugm-3,19,R,ugm-3,21,R,ugm-3
13-01-2009,04:00,11,R,ugm-3 (VCM),1,R,ugm-3,15,R,ugm-3,17,R,ugm-3
13-01-2009,05:00,12,R,ugm-3 (VCM),5,R,ugm-3,27,R,ugm-3,34,R,ugm-3
13-01-2009,06:00,11,R,ugm-3 (VCM),11,R,ugm-3,36,R,ugm-3,53,R,ugm-3
13-01-2009,07:00,10,R,ugm-3 (VCM),38,R,ugm-3,59,R,ugm-3,117,R,ugm-3
13-01-2009,08:00,14,R,ugm-3 (VCM),65,R,ugm-3,74,R,ugm-3,174,R,ugm-3
13-01-2009,09:00,32,R,ugm-3 (VCM),146,R,ugm-3,101,R,ugm-3,325,R,ugm-3
13-01-2009,10:00,28,R,ugm-3 (VCM),153,R,ugm-3,103,R,ugm-3,336,R,ugm-3
13-01-2009,11:00,29,R,ugm-3 (VCM),106,R,ugm-3,92,R,ugm-3,254,R,ugm-3
13-01-2009,12:00,27,R,ugm-3 (VCM),99,R,ugm-3,80,R,ugm-3,231,R,ugm-3
13-01-2009,13:00,26,R,ugm-3 (VCM),93,R,ugm-3,82,R,ugm-3,223,R,ugm-3
13-01-2009,14:00,28,R,ugm-3 (VCM),71,R,ugm-3,82,R,ugm-3,191,R,ugm-3
13-01-2009,15:00,15,R,ugm-3 (VCM),41,R,ugm-3,65,R,ugm-3,128,R,ugm-3
13-01-2009,16:00,12,R,ugm-3 (VCM),44,R,ugm-3,65,R,ugm-3,132,R,ugm-3
13-01-2009,17:00,10,R,ugm-3 (VCM),29,R,ugm-3,52,R,ugm-3,96,R,ugm-3
13-01-2009,18:00,13,R,ugm-3 (VCM),44,R,ugm-3,59,R,ugm-3,126,R,ugm-3
13-01-2009,19:00,19,R,ugm-3 (VCM),98,R,ugm-3,90,R,ugm-3,239,R,ugm-3
13-01-2009,20:00,25,R,ugm-3 (VCM),74,R,ugm-3,90,R,ugm-3,202,R,ugm-3
13-01-2009,21:00,18,R,ugm-3 (VCM),43,R,ugm-3,71,R,ugm-3,136,R,ugm-3
13-01-2009,22:00,22,R,ugm-3 (VCM),30,R,ugm-3,59,R,ugm-3,105,R,ugm-3
13-01-2009,23:00,22,R,ugm-3 (VCM),20,R,ugm-3,55,R,ugm-3,86,R,ugm-3
13-01-2009,24:00,19,R,ugm-3 (VCM),11,R,ugm-3,46,R,ugm-3,63,R,ugm-3
14-01-2009,01:00,24,R,ugm-3 (VCM),4,R,ugm-3,32,R,ugm-3,38,R,ugm-3
14-01-2009,02:00,19,R,ugm-3 (VCM),4,R,ugm-3,36,R,ugm-3,42,R,ugm-3
14-01-2009,03:00,16,R,ugm-3 (VCM),15,R,ugm-3,38,R,ugm-3,61,R,ugm-3
14-01-2009,04:00,16,R,ugm-3 (VCM),10,R,ugm-3,36,R,ugm-3,52,R,ugm-3
14-01-2009,05:00,14,R,ugm-3 (VCM),11,R,ugm-3,38,R,ugm-3,55,R,ugm-3
14-01-2009,06:00,16,R,ugm-3 (VCM),23,R,ugm-3,40,R,ugm-3,74,R,ugm-3
14-01-2009,07:00,17,R,ugm-3 (VCM),81,R,ugm-3,53,R,ugm-3,178,R,ugm-3
14-01-2009,08:00,25,R,ugm-3 (VCM),161,R,ugm-3,80,R,ugm-3,327,R,ugm-3
14-01-2009,09:00,28,R,ugm-3 (VCM),198,R,ugm-3,96,R,ugm-3,397,R,ugm-3
14-01-2009,10:00,26,R,ugm-3 (VCM),139,R,ugm-3,74,R,ugm-3,287,R,ugm-3
14-01-2009,11:00,31,R,ugm-3 (VCM),113,R,ugm-3,71,R,ugm-3,243,R,ugm-3
14-01-2009,12:00,44,R,ugm-3 (VCM),100,R,ugm-3,69,R,ugm-3,222,R,ugm-3
14-01-2009,13:00,39,R,ugm-3 (VCM),71,R,ugm-3,65,R,ugm-3,174,R,ugm-3
14-01-2009,14:00,32,R,ugm-3 (VCM),55,R,ugm-3,63,R,ugm-3,147,R,ugm-3
14-01-2009,15:00,33,R,ugm-3 (VCM),69,R,ugm-3,61,R,ugm-3,166,R,ugm-3
14-01-2009,16:00,33,R,ugm-3 (VCM),61,R,ugm-3,59,R,ugm-3,153,R,ugm-3
14-01-2009,17:00,35,R,ugm-3 (VCM),83,R,ugm-3,65,R,ugm-3,191,R,ugm-3
14-01-2009,18:00,28,R,ugm-3 (VCM),75,R,ugm-3,69,R,ugm-3,183,R,ugm-3
14-01-2009,19:00,29,R,ugm-3 (VCM),36,R,ugm-3,69,R,ugm-3,124,R,ugm-3
14-01-2009,20:00,27,R,ugm-3 (VCM),30,R,ugm-3,59,R,ugm-3,105,R,ugm-3
14-01-2009,21:00,20,R,ugm-3 (VCM),14,R,ugm-3,55,R,ugm-3,76,R,ugm-3
14-01-2009,22:00,19,R,ugm-3 (VCM),15,R,ugm-3,59,R,ugm-3,82,R,ugm-3
14-01-2009,23:00,19,R,ugm-3 (VCM),11,R,ugm-3,53,R,ugm-3,71,R,ugm-3
14-01-2009,24:00,23,R,ugm-3 (VCM),6,R,ugm-3,53,R,ugm-3,63,R,ugm-3
15-01-2009,01:00,18,R,ugm-3 (VCM),1,R,ugm-3,52,R,ugm-3,53,R,ugm-3
15-01-2009,02:00,26,R,ugm-3 (VCM),4,R,ugm-3,59,R,ugm-3,65,R,ugm-3
15-01-2009,03:00,21,R,ugm-3 (VCM),4,R,ugm-3,59,R,ugm-3,65,R,ugm-3
15-01-2009,04:00,21,R,ugm-3 (VCM),1,R,ugm-3,44,R,ugm-3,46,R,ugm-3
15-01-2009,05:00,23,R,ugm-3 (VCM),3,R,ugm-3,36,R,ugm-3,40,R,ugm-3
15-01-2009,06:00,21,R,ugm-3 (VCM),3,R,ugm-3,34,R,ugm-3,38,R,ugm-3
15-01-2009,07:00,19,R,ugm-3 (VCM),8,R,ugm-3,36,R,ugm-3,48,R,ugm-3
15-01-2009,08:00,22,R,ugm-3 (VCM),15,R,ugm-3,34,R,ugm-3,57,R,ugm-3
15-01-2009,09:00,24,R,ugm-3 (VCM),26,R,ugm-3,38,R,ugm-3,78,R,ugm-3
15-01-2009,10:00,,,,,,,,,,,,
15-01-2009,11:00,,,,,,,,,,,,
15-01-2009,12:00,,,,,,,,,,,,
15-01-2009,13:00,22,R,ugm-3 (VCM),30,R,ugm-3,44,R,ugm-3,90,R,ugm-3
15-01-2009,14:00,23,R,ugm-3 (VCM),25,R,ugm-3,40,R,ugm-3,78,R,ugm-3
15-01-2009,15:00,22,R,ugm-3 (VCM),25,R,ugm-3,42,R,ugm-3,80,R,ugm-3
15-01-2009,16:00,20,R,ugm-3 (VCM),18,R,ugm-3,44,R,ugm-3,71,R,ugm-3
15-01-2009,17:00,19,R,ugm-3 (VCM),19,R,ugm-3,46,R,ugm-3,74,R,ugm-3